Location: Cheyres
(46.8153°N, 6.7877°E)
Time: 04:07:32
(UTC+00:00)

CUTE 1.7 + AOD 2 - Pass Details

Date: 06 July 2022
Orbit: 589 x 608 km, 97.7° (Epoch: 09 August)

Event Time Altitude Azimuth Distance (km) Brightness Sun altitude
Rises 02:59:46 0° 19° (NNE) 2,848 ? -6.9°
Reaches altitude 10° 03:02:03 10° 27° (NNE) 1,937 ? -6.6°
Maximum altitude 03:06:02 40° 98° (E) 882 ? -6.1°
Drops below altitude 10° 03:09:56 10° 168° (SSE) 1,914 ? -5.6°
Sets 03:12:11 0° 176° (S) 2,808 ? -5.3°
